Location: De Greiden
(52.9496°N, 5.9137°E)
Time: 22:18:09
(UTC+00:00)

NOSS 3-4 (A) - Pass Details

Date: 24 January 2021
Orbit: 877 x 1335 km, 63.4° (Epoch: 16 February)

Event Time Altitude Azimuth Distance (km) Brightness Sun altitude
Rises 16:45:47 0° 254° (WSW) 3,509 8.8 -6.1°
Reaches altitude 10° 16:48:19 10° 261° (W) 2,603 7.3 -6.4°
Maximum altitude 16:54:08 47° 334° (NNW) 1,265 4.2 -7.3°
Drops below altitude 10° 17:00:32 10° 48° (NE) 2,860 5.4 -8.1°
Enters shadow 17:01:07 - 50° (NE) 3,064 5.5 -8.2°
